TimeEDT,TemperatureF,Dew PointF,Humidity,Sea Level PressureIn,VisibilityMPH,Wind Direction,Wind SpeedMPH,Gust SpeedMPH,PrecipitationIn,Events,Conditions,WindDirDegrees,DateUTC
12:53 AM,57.0,43.0,59,30.19,10.0,North,9.2,-,N/A,,Clear,350,2013-03-14 04:53:00
1:53 AM,55.9,43.0,62,30.19,10.0,North,4.6,-,N/A,,Clear,10,2013-03-14 05:53:00
2:53 AM,53.1,44.1,71,30.17,10.0,North,3.5,-,N/A,,Clear,360,2013-03-14 06:53:00
3:53 AM,53.1,45.0,74,30.17,10.0,North,4.6,-,N/A,,Clear,360,2013-03-14 07:53:00
4:53 AM,55.9,46.9,72,30.16,10.0,North,9.2,-,N/A,,Clear,360,2013-03-14 08:53:00
5:53 AM,54.0,46.9,77,30.18,10.0,North,13.8,-,N/A,,Clear,360,2013-03-14 09:53:00
6:53 AM,53.1,39.9,61,30.20,10.0,North,13.8,-,N/A,,Clear,360,2013-03-14 10:53:00
7:53 AM,51.1,36.0,56,30.23,10.0,North,12.7,20.7,N/A,,Clear,10,2013-03-14 11:53:00
8:53 AM,55.0,33.1,43,30.24,10.0,North,17.3,-,N/A,,Clear,10,2013-03-14 12:53:00
9:53 AM,57.0,28.9,34,30.25,10.0,NNE,19.6,27.6,N/A,,Clear,30,2013-03-14 13:53:00
10:53 AM,60.1,25.0,26,30.25,10.0,NNE,20.7,26.5,N/A,,Clear,20,2013-03-14 14:53:00
11:53 AM,64.0,27.0,25,30.25,10.0,NNE,16.1,23.0,N/A,,Clear,30,2013-03-14 15:53:00
12:53 PM,66.9,25.0,21,30.24,10.0,NNE,6.9,-,N/A,,Clear,20,2013-03-14 16:53:00
1:53 PM,69.1,24.1,18,30.21,10.0,NNE,10.4,16.1,N/A,,Clear,30,2013-03-14 17:53:00
2:53 PM,72.0,21.9,15,30.18,10.0,NNE,13.8,-,N/A,,Clear,30,2013-03-14 18:53:00
3:53 PM,73.0,21.0,14,30.16,10.0,North,6.9,-,N/A,,Clear,10,2013-03-14 19:53:00
4:53 PM,73.9,21.0,14,30.15,10.0,NNE,11.5,-,N/A,,Clear,30,2013-03-14 20:53:00
5:53 PM,70.0,37.9,31,30.15,10.0,WNW,10.4,-,N/A,,Clear,300,2013-03-14 21:53:00
6:53 PM,66.9,43.0,42,30.17,10.0,WNW,6.9,-,N/A,,Clear,300,2013-03-14 22:53:00
7:53 PM,63.0,45.0,52,30.18,10.0,WNW,5.8,-,N/A,,Clear,300,2013-03-14 23:53:00
8:53 PM,59.0,48.0,67,30.19,10.0,NNW,5.8,-,N/A,,Clear,330,2013-03-15 00:53:00
9:53 PM,57.0,48.0,72,30.21,10.0,NNW,5.8,-,N/A,,Clear,330,2013-03-15 01:53:00
10:53 PM,57.0,44.1,62,30.24,10.0,NNE,4.6,-,N/A,,Clear,30,2013-03-15 02:53:00
11:53 PM,54.0,41.0,62,30.26,10.0,NE,9.2,-,N/A,,Clear,50,2013-03-15 03:53:00